{"data":{"norad_id":63552,"intl_designator":"2025-075E","name":"STARLINK-11685 [DTC]","alt_names":[],"object_type":"PAYLOAD","status":"ACTIVE","operator":null,"country":"US","launch_date":"2025-04-13","launch_site_code":"AFETR","launch_vehicle":null,"mission":null,"orbit_class":"UNKNOWN","rcs_meters":null,"size_class":null,"mass_kg":null,"dimensions":null,"purposes":["comms"],"wikipedia_slug":null,"has_3d_model":false,"image_url":null,"decayed_at":null,"tle_current":{"epoch":"2026-05-24T17:55:38.904384Z","epoch_age_seconds":90784,"freshness":"FRESH","line1":"1 63552U 25075E   26144.74697806  .00175529  00000+0  13362-2 0  9999","line2":"2 63552  43.0009  55.0689 0003609 281.3604  78.6858 15.70952013 65213","mean_motion":15.70952013,"eccentricity":0.0003609,"inclination_deg":43.0009,"raan_deg":55.0689,"arg_perigee_deg":281.3604,"mean_anomaly_deg":78.6858,"bstar":0.0013362,"rev_number":6521,"period_min":91.66416211849,"perigee_km":353.74451330005,"apogee_km":358.60533964858,"semimajor_km":6734.3119264743,"source":"CELESTRAK","updated_at":"2026-05-25T13:38:20.041098Z"}}}